STARLINK-32251

Last updated on Tue Oct 01 2024 00:02:04 GMT+0000 (Coordinated Universal Time)

1 60940U 24155S 24274.58334491 -.01534591 00000+0 -35551-1 0 9991 2 60940 53.1597 51.8802 0001137 90.3198 157.4423 15.44958384 5863

Satellite not in orbit